Wind_Speed
12 12 11 11 11 10 9 9 9 9 8 8 7 7 7 7 7 7 7 7 6 6 5 5 5 5 4 4 3 3 3 2 2 2 2 1 1 1 1 1 2 2 2
14 13 13 12 12 11 11 11 10 10 9 9 9 9 8 8 8 8 8 8 8 7 7 7 7 6 6 5 5 4 4 4 3 3 3 3 3 2 3 3 3 3 4
16 15 14 14 13 13 12 12 12 12 11 10 10 10 10 10 10 10 10 10 9 9 8 8 8 8 7 7 6 6 6 6 5 5 5 4 4 4 4 4 4 5 5
18 17 16 15 15 14 14 14 14 14 13 13 12 12 12 12 12 12 11 11 11 10 10 9 9 8 8 8 8 8 8 7 7 7 6 6 6 6 6 6 6 6 6
19 19 18 17 17 16 15 15 15 16 15 15 15 14 14 14 14 14 14 13 12 12 11 11 10 10 9 10 10 9 9 9 9 9 9 8 8 8 8 8 8 8 8
21 21 20 19 18 18 17 17 17 17 17 17 17 17 16 16 16 16 15 15 14 13 13 12 12 11 11 11 11 11 11 10 10 10 11 10 10 10 10 10 10 10 10
22 22 22 21 20 20 19 19 19 18 18 18 18 18 18 18 17 17 17 16 15 14 14 14 13 13 13 13 13 13 12 12 12 12 12 13 13 13 13 12 12 12 12
24 24 24 24 23 22 21 21 20 20 20 20 19 19 19 18 18 18 18 18 17 16 15 15 15 15 15 15 14 14 14 14 15 15 15 15 15 15 15 14 14 14 14
26 26 25 25 25 24 23 23 22 22 22 21 21 21 20 20 20 19 19 19 19 18 17 17 17 17 17 17 17 16 16 16 17 17 17 17 17 17 17 17 17 17 16
27 27 27 27 26 26 26 25 24 24 24 23 23 23 22 22 21 21 21 21 20 20 20 20 19 19 19 19 19 19 19 19 19 19 19 19 19 19 19 19 19 19 19
28 28 28 28 27 27 27 27 26 26 25 25 25 25 24 24 23 23 23 23 22 22 22 22 21 21 21 21 21 21 21 21 21 21 21 21 21 22 22 21 21 21 21
30 30 30 30 29 28 28 28 28 28 27 27 27 26 26 26 25 25 25 24 24 24 24 24 24 23 23 23 23 23 23 23 23 23 23 23 23 23 23 23 23 23 23
30 30 31 31 31 30 30 30 30 30 29 29 29 28 27 27 27 26 26 26 26 26 25 25 25 25 25 25 25 26 26 25 25 25 25 25 26 26 25 25 25 25 24
31 31 31 31 31 32 32 32 32 31 31 31 30 30 29 28 29 29 28 27 27 27 27 27 27 27 28 28 28 28 28 28 28 27 27 27 27 28 27 27 26 26 26
32 32 32 32 32 33 33 33 33 33 33 32 32 31 31 30 30 30 30 30 29 29 30 30 30 30 30 30 30 30 29 29 30 30 29 29 29 29 29 29 28 28 28
32 32 33 34 34 34 34 35 34 34 34 34 34 34 34 32 32 32 32 32 32 31 32 33 32 32 32 32 32 32 32 32 32 32 32 32 31 31 31 31 31 30 30
33 34 34 35 35 36 35 35 35 35 35 35 34 35 36 35 34 34 34 34 34 34 34 34 35 35 34 34 34 34 33 33 34 34 34 34 34 34 34 33 33 33 32
34 35 35 35 36 36 36 36 36 36 36 36 36 35 36 36 36 35 36 36 35 35 35 36 36 35 35 35 35 35 35 36 36 36 36 35 35 35 35 35 34 34 34
35 35 36 35 35 36 36 36 37 36 36 37 37 37 37 36 37 37 36 36 36 36 36 35 36 36 36 35 35 35 36 37 37 36 36 36 36 35 36 36 36 36 35
35 35 35 36 35 36 36 37 37 36 36 37 38 37 36 36 36 37 36 36 36 36 36 36 36 37 38 37 36 36 37 37 36 36 36 36 36 36 36 37 37 37 36
33 34 35 35 36 37 36 37 38 37 37 37 38 38 37 37 36 36 37 37 37 36 37 38 37 38 38 38 38 38 37 37 36 36 36 36 36 36 37 37 37 37 38
34 34 35 36 36 37 38 38 38 38 38 38 39 38 38 39 38 37 37 37 38 38 38 39 39 38 37 38 38 37 37 37 38 38 37 37 36 37 37 38 38 39 39
35 35 35 36 36 37 38 38 38 39 40 40 40 40 39 39 38 38 37 37 38 39 39 39 39 39 39 39 38 37 37 37 38 37 38 37 37 38 39 39 39 40 40
35 35 35 36 37 37 37 39 40 40 39 39 39 40 41 40 40 38 38 39 38 38 39 39 39 39 40 40 39 38 37 37 37 36 36 37 38 39 39 39 40 40 41
35 35 34 36 38 38 38 38 39 40 40 40 40 41 41 40 40 40 40 40 39 39 39 39 40 40 40 39 39 38 38 37 37 37 37 38 38 39 40 40 41 41 41
35 36 35 35 37 38 39 39 40 40 41 41 40 41 41 40 40 40 40 40 40 40 40 41 41 41 40 40 40 39 40 39 39 39 39 39 39 40 41 42 42 42 43
Wind_Direction
240 238 239 237 236 234 235 238 238 235 237 239 240 240 239 238 235 236 241 240 240 242 244 247 249 250 250 253 257 261 252 235 228 222 213 223 249 264 273 284 278 281 271
241 239 238 238 238 236 235 238 240 236 236 239 242 241 241 239 239 241 243 242 243 247 253 257 255 253 254 257 258 255 251 244 250 250 250 255 262 267 271 274 276 275 279
240 240 238 237 238 237 236 237 239 239 236 237 239 240 242 243 244 246 248 246 247 251 256 259 259 255 256 257 258 259 257 252 255 256 256 257 261 263 267 271 275 274 276
240 239 239 237 237 237 236 237 238 240 239 240 242 243 245 247 249 250 251 251 250 252 256 259 260 258 258 257 258 260 260 258 256 257 259 263 264 265 269 271 274 273 271
239 239 240 239 238 238 238 238 239 240 242 243 244 246 247 249 249 250 251 252 253 255 257 257 257 256 257 259 261 262 261 261 261 261 263 264 265 267 269 271 272 271 270
239 239 238 239 239 238 239 240 241 242 243 245 245 247 248 249 250 251 253 253 255 256 258 258 257 257 260 262 263 263 263 262 264 265 265 264 264 266 268 269 270 271 272
241 240 239 239 240 239 240 241 242 242 244 246 246 246 248 250 252 253 254 255 256 257 259 259 259 260 262 263 264 265 265 265 266 265 265 266 266 267 269 270 270 271 272
241 241 241 239 240 240 241 243 243 243 244 246 247 247 248 250 252 253 254 256 258 259 259 260 261 263 264 265 266 267 267 268 267 266 266 266 266 267 268 270 271 272 272
242 242 243 242 240 240 241 243 244 244 245 247 248 249 250 250 251 252 253 255 257 259 259 260 262 264 265 266 266 267 268 269 269 268 267 265 265 265 267 269 270 272 272
243 244 244 244 242 242 242 243 245 244 245 247 249 249 249 251 252 252 253 254 255 257 259 260 262 264 266 266 266 268 270 271 270 268 267 266 265 265 266 267 269 271 273
242 244 245 244 243 243 243 243 245 246 246 247 249 250 251 251 252 253 253 254 256 258 260 261 263 264 266 267 268 268 269 270 271 269 268 268 267 267 267 267 268 269 271
241 243 245 243 243 244 244 244 245 246 247 249 249 252 252 251 252 253 253 255 257 258 259 261 263 265 266 268 269 269 269 270 270 269 268 268 268 267 267 267 268 268 269
240 242 243 242 243 245 245 245 246 246 248 249 250 253 253 252 252 253 254 256 257 258 259 261 264 266 267 269 270 269 269 269 269 269 269 268 267 266 267 267 267 267 267
240 241 241 242 242 244 245 246 247 247 248 249 251 253 254 253 253 254 254 256 258 260 261 263 265 267 268 269 270 270 269 269 269 269 269 269 267 265 265 266 266 265 265
240 241 241 241 243 245 245 247 247 246 248 249 250 252 254 254 254 254 255 256 258 260 262 264 266 267 269 270 270 270 268 268 269 269 269 268 267 265 264 264 264 264 265
240 241 241 242 243 243 245 246 247 247 248 250 251 252 253 256 256 256 256 257 258 261 263 264 265 267 269 270 271 271 269 269 269 269 267 266 266 265 264 264 264 264 265
241 241 242 242 242 244 244 246 247 247 249 250 251 253 254 255 256 256 257 257 259 262 263 265 266 268 269 270 271 272 272 271 270 269 266 265 264 264 264 264 264 264 265
241 242 243 244 244 245 245 247 247 248 249 250 251 253 255 256 255 257 258 259 260 262 264 265 267 268 268 270 271 272 273 273 272 270 266 265 264 264 263 264 264 264 266
243 243 243 243 244 244 245 247 249 250 250 250 252 253 255 257 257 257 258 259 261 262 264 266 267 268 269 269 271 271 272 273 272 269 266 264 264 263 264 264 263 264 266
244 243 243 243 244 244 244 246 248 249 250 251 252 253 255 257 258 257 258 259 262 264 264 266 268 269 269 269 270 271 272 271 268 266 265 265 264 264 264 264 264 264 265
245 243 244 244 245 246 245 245 246 248 249 250 252 253 254 255 258 260 260 261 262 264 265 265 268 270 270 271 271 271 271 270 267 266 265 265 265 265 264 265 264 264 264
247 245 246 247 247 246 246 247 248 248 249 251 253 255 256 257 259 261 262 262 264 265 265 266 269 270 271 271 272 272 271 269 267 265 265 265 265 265 265 266 264 264 265
250 249 248 248 248 247 247 248 249 249 250 252 254 255 258 259 260 261 262 264 266 266 265 267 268 269 270 272 273 273 271 269 266 265 264 264 265 265 266 266 265 265 266
251 251 251 249 248 248 248 249 250 252 253 254 256 257 258 259 260 261 264 265 266 266 265 265 267 269 270 271 271 271 270 269 267 265 265 265 265 266 266 266 266 267 267
252 252 253 253 251 252 251 251 252 254 254 256 257 258 258 260 261 263 265 266 267 266 264 265 267 269 269 269 269 269 269 270 268 267 266 266 266 267 267 268 268 269 269
252 252 252 254 254 253 253 253 254 255 255 257 258 258 258 260 263 265 266 267 268 268 266 266 267 269 269 268 268 269 268 269 268 269 270 269 268 268 268 268 268 269 270
Height
5849 5850 5851 5852 5852 5853 5854 5855 5855 5856 5857 5857 5858 5858 5859 5859 5860 5860 5861 5861 5861 5861 5861 5861 5861 5861 5861 5861 5861 5861 5861 5861 5860 5860 5860 5859 5859 5859 5859 5859 5858 5858 5858
5847 5847 5848 5849 5851 5851 5852 5853 5854 5855 5856 5856 5857 5857 5858 5858 5859 5859 5860 5860 5860 5861 5861 5861 5861 5861 5861 5861 5861 5860 5860 5860 5860 5859 5859 5859 5859 5859 5858 5858 5858 5858 5858
5844 5845 5846 5847 5848 5849 5850 5851 5852 5853 5854 5855 5855 5856 5857 5857 5858 5858 5859 5859 5859 5859 5860 5860 5860 5860 5860 5860 5860 5860 5859 5859 5859 5859 5858 5858 5858 5858 5858 5857 5857 5857 5857
5840 5841 5843 5844 5845 5847 5848 5849 5850 5851 5852 5853 5854 5854 5855 5856 5856 5857 5857 5857 5858 5858 5858 5858 5858 5858 5858 5859 5858 5858 5858 5858 5858 5858 5858 5857 5857 5857 5857 5856 5856 5856 5856
5837 5838 5839 5841 5842 5844 5845 5846 5848 5849 5850 5851 5852 5852 5853 5854 5854 5855 5855 5856 5856 5856 5857 5857 5857 5857 5857 5857 5857 5857 5856 5856 5856 5856 5856 5856 5856 5855 5855 5855 5855 5854 5854
5832 5834 5836 5837 5839 5841 5842 5843 5845 5846 5847 5848 5849 5850 5851 5851 5852 5853 5853 5854 5854 5854 5855 5855 5855 5855 5855 5855 5855 5855 5855 5854 5854 5854 5854 5854 5854 5854 5853 5853 5853 5853 5852
5828 5830 5832 5833 5835 5837 5839 5840 5841 5843 5844 5845 5845 5846 5847 5848 5849 5850 5851 5851 5852 5852 5852 5853 5853 5853 5853 5853 5853 5852 5852 5852 5852 5852 5852 5852 5851 5851 5851 5851 5851 5850 5850
5823 5825 5827 5829 5831 5833 5835 5836 5837 5839 5840 5841 5842 5843 5844 5845 5846 5847 5848 5848 5849 5849 5850 5850 5850 5850 5850 5850 5850 5850 5850 5849 5849 5849 5849 5849 5849 5848 5848 5848 5848 5848 5847
5818 5820 5822 5824 5826 5828 5830 5832 5833 5835 5836 5838 5839 5840 5841 5842 5842 5843 5844 5845 5846 5846 5847 5847 5847 5847 5847 5847 5847 5847 5847 5846 5846 5846 5845 5845 5845 5845 5845 5845 5845 5844 5844
5813 5815 5817 5819 5821 5823 5825 5827 5829 5830 5832 5833 5835 5836 5836 5838 5839 5840 5840 5841 5842 5843 5843 5843 5844 5844 5844 5843 5843 5843 5843 5842 5842 5841 5841 5841 5841 5841 5841 5841 5841 5841 5840
5807 5809 5811 5813 5816 5818 5820 5822 5824 5825 5827 5828 5830 5831 5832 5833 5834 5835 5836 5837 5837 5838 5839 5839 5839 5839 5839 5839 5839 5839 5838 5838 5837 5837 5836 5836 5836 5836 5836 5836 5836 5836 5836
5801 5803 5805 5807 5810 5812 5815 5816 5818 5820 5822 5823 5825 5826 5827 5828 5829 5831 5831 5832 5833 5833 5834 5834 5835 5835 5834 5834 5834 5833 5833 5832 5832 5831 5831 5830 5830 5831 5831 5831 5831 5831 5831
5794 5796 5799 5801 5804 5806 5809 5811 5813 5814 5816 5818 5819 5821 5822 5823 5824 5825 5826 5827 5827 5828 5829 5829 5829 5829 5829 5828 5828 5827 5827 5826 5825 5825 5824 5824 5824 5824 5825 5825 5825 5825 5826
5787 5790 5792 5794 5797 5800 5802 5804 5807 5808 5810 5812 5814 5815 5816 5817 5818 5820 5820 5821 5822 5822 5823 5823 5823 5823 5823 5822 5821 5821 5820 5820 5819 5818 5818 5817 5817 5818 5818 5819 5819 5819 5820
5780 5783 5785 5788 5790 5793 5796 5798 5800 5802 5803 5805 5807 5808 5810 5811 5812 5813 5814 5815 5816 5816 5816 5817 5817 5816 5816 5815 5814 5814 5813 5813 5812 5811 5811 5810 5811 5811 5811 5812 5812 5813 5813
5773 5775 5778 5781 5784 5786 5789 5791 5793 5795 5797 5799 5800 5802 5803 5804 5805 5807 5807 5808 5809 5809 5809 5810 5810 5809 5809 5808 5807 5806 5806 5805 5805 5804 5803 5803 5803 5803 5804 5804 5805 5806 5806
5764 5767 5770 5773 5776 5779 5782 5784 5786 5788 5789 5791 5793 5794 5796 5797 5798 5799 5800 5801 5801 5802 5802 5802 5802 5801 5801 5800 5799 5798 5797 5797 5796 5796 5795 5795 5795 5796 5796 5797 5797 5798 5798
5756 5759 5762 5765 5768 5771 5774 5776 5778 5780 5781 5783 5785 5787 5788 5789 5790 5791 5792 5793 5793 5794 5794 5794 5794 5793 5793 5792 5791 5790 5789 5788 5787 5787 5786 5786 5786 5787 5788 5789 5789 5790 5790
5749 5752 5754 5757 5760 5763 5765 5768 5770 5772 5774 5775 5777 5779 5780 5781 5782 5783 5784 5785 5785 5785 5785 5785 5785 5784 5784 5783 5782 5781 5780 5779 5778 5777 5777 5777 5777 5778 5779 5780 5780 5781 5781
5741 5743 5746 5749 5752 5754 5757 5759 5762 5764 5766 5767 5769 5770 5772 5773 5774 5774 5775 5776 5776 5777 5777 5777 5776 5775 5775 5774 5773 5772 5771 5769 5768 5767 5767 5768 5768 5769 5770 5770 5771 5772 5772
5733 5736 5739 5741 5743 5745 5748 5751 5754 5756 5757 5759 5760 5762 5763 5764 5765 5766 5767 5767 5768 5768 5768 5768 5767 5767 5765 5764 5764 5763 5761 5760 5759 5759 5759 5759 5759 5760 5761 5761 5762 5762 5762
5726 5728 5731 5733 5735 5738 5740 5742 5745 5747 5749 5751 5752 5753 5754 5755 5756 5757 5758 5759 5759 5759 5759 5759 5758 5758 5756 5755 5754 5753 5753 5752 5750 5750 5749 5750 5750 5751 5751 5752 5752 5752 5752
5719 5721 5723 5725 5727 5729 5731 5733 5735 5737 5739 5742 5743 5745 5745 5747 5748 5748 5749 5750 5750 5750 5750 5749 5749 5749 5748 5746 5745 5744 5743 5742 5742 5741 5741 5741 5741 5741 5742 5742 5742 5742 5742
5710 5712 5714 5716 5718 5720 5723 5725 5726 5728 5730 5732 5734 5735 5737 5737 5738 5739 5740 5740 5740 5740 5740 5740 5739 5739 5738 5737 5736 5734 5733 5732 5732 5733 5733 5732 5732 5732 5732 5732 5732 5732 5732
5702 5704 5705 5707 5709 5712 5714 5716 5717 5719 5721 5723 5724 5726 5727 5728 5729 5729 5730 5730 5731 5730 5730 5730 5729 5729 5728 5727 5726 5725 5724 5723 5723 5723 5724 5723 5722 5722 5722 5722 5722 5722 5722
5694 5695 5697 5699 5700 5702 5704 5706 5708 5710 5712 5714 5715 5716 5718 5719 5719 5720 5720 5720 5720 5720 5720 5719 5719 5718 5718 5717 5716 5716 5715 5714 5714 5713 5713 5713 5713 5712 5712 5711 5711 5711 5711